Location: Les Jeannots
(43.2262°N, 5.5774°E)
Time: 17:55:09
(UTC+00:00)

USA 267 - Pass Details

Date: 05 July 2020
Orbit: 1102 x 1106 km, 123.0° (Epoch: 09 August)

Event Time Altitude Azimuth Distance (km) Brightness Sun altitude
Exits shadow 21:33:57 14° 105° (ESE) 2,634 4.8 -17.8°
Maximum altitude 21:39:24 56° 31° (NNE) 1,295 3.8 -18.3°
Drops below altitude 10° 21:45:45 10° 316° (NW) 2,965 6.7 -18.8°
Sets 21:48:17 0° 312° (NW) 3,926 7.5 -19.1°
